This demonstration page uses our WeatherBlox Daily Observations layout. Learn more.

Hourly Observations for November 30, 2015

Temp ( °F °C ) Dew Point ( °F °C ) Humidity (%) Winds ( mph kmh ) Pressure ( in mb ) Visibility ( mi km ) Precip ( " mm )
12:15 am 00:15 Cloudy with Mist and Fog 28 -2 27 -2.6 96 96 Calm 30.21 1023 2 3.21868 0 0
12:35 am 00:35 Cloudy with Mist and Fog 28 -2 28 -2.5 96 96 Calm 30.21 1023 2 3.21868 0 0
12:55 am 00:55 Cloudy with Mist and Fog 28 -2 28 -2.5 96 96 Calm 30.18 1022 2 3.21868 0 0
1:15 am 01:15 Cloudy with Mist and Fog 28 -2 28 -2.5 96 96 Calm 30.18 1022 2 3.21868 0 0
1:35 am 01:35 Cloudy with Mist and Fog 28 -2 27 -2.6 96 96 Calm 30.18 1022 2.5 4.02335 0 0
1:55 am 01:55 Cloudy with Mist and Fog 28 -2 28 -2.5 96 96 Calm 30.18 1022 2.5 4.02335 0 0
2:15 am 02:15 Cloudy with Mist and Fog 28 -2 28 -2.5 96 96 Calm 30.15 1021 2.5 4.02335 0 0
2:35 am 02:35 Cloudy with Mist and Fog 28 -2 28 -2.5 96 96 Calm 30.15 1021 2.5 4.02335 0 0
2:55 am 02:55 Cloudy with Mist and Fog 28 -2 28 -2.5 96 96 Calm 30.15 1021 2.5 4.02335 0 0
3:15 am 03:15 Cloudy with Mist and Fog 28 -2 28 -2.5 96 96 NNE 3 6 30.15 1021 2 3.21868 0 0
3:35 am 03:35 Cloudy with Mist and Fog 29 -1.9 28 -2.4 96 96 NNE 3 6 30.12 1020 2 3.21868 0 0
3:55 am 03:55 Cloudy with Mist and Fog 29 -1.8 28 -2.3 96 96 Calm 30.12 1020 2 3.21868 0 0
4:15 am 04:15 Cloudy with Light Wintry Mix 29 -1.7 28 -2.3 96 96 Calm 30.12 1020 1.75 2.816345 0 0
4:35 am 04:35 Cloudy with Light Wintry Mix 29 -1.6 28 -2.2 96 96 Calm 30.12 1020 2.5 4.02335 0 0
4:55 am 04:55 Cloudy with Mist and Fog 29 -1.7 28 -2.3 96 96 Calm 30.12 1020 4 6.43736 0 0
5:15 am 05:15 Cloudy with Light Wintry Mix 29 -1.7 28 -2.3 96 96 Calm 30.12 1020 3 4.82802 0 0
5:35 am 05:35 Cloudy with Mist and Fog 29 -1.7 28 -2.3 96 96 Calm 30.12 1020 2.5 4.02335 0 0
5:55 am 05:55 Cloudy with Mist and Fog 29 -1.7 28 -2.3 96 96 Calm 30.12 1020 2.5 4.02335 0 0
6:15 am 06:15 Cloudy with Light Wintry Mix 29 -1.8 28 -2.5 95 95 Calm 30.09 1019 3 4.82802 0 0
6:35 am 06:35 Cloudy with Light Snow 28 -2 28 -2.5 96 96 Calm 30.09 1019 2.5 4.02335 0 0
6:55 am 06:55 Cloudy with Light Snow 28 -2 28 -2.5 96 96 Calm 30.09 1019 2 3.21868 0.01 0.254
7:15 am 07:15 Cloudy with Light Wintry Mix 28 -2 28 -2.5 96 96 Calm 30.09 1019 2.5 4.02335 0 0
7:35 am 07:35 Cloudy with Light Wintry Mix 28 -2 27 -2.6 96 96 Calm 30.09 1019 5 8.0467 0 0
7:55 am 07:55 Cloudy with Light Wintry Mix 28 -2 27 -2.6 96 96 Calm 30.09 1019 7 11.26538 0 0
8:15 am 08:15 Cloudy with Light Snow 28 -2 27 -2.6 96 96 Calm 30.09 1019 2.5 4.02335 0 0
8:35 am 08:35 Cloudy with Light Snow 28 -2 27 -2.6 96 96 Calm 30.09 1019 2 3.21868 0 0
8:55 am 08:55 Cloudy with Light Snow 28 -2 27 -2.6 96 96 Calm 30.09 1019 3 4.82802 0 0
9:15 am 09:15 Cloudy 28 -2 27 -2.6 96 96 Calm 30.09 1019 10 16.0934 0 0
9:35 am 09:35 Cloudy 29 -1.7 28 -2.5 94 94 Calm 30.09 1019 10 16.0934 0 0
9:55 am 09:55 Cloudy 28 -2 27 -2.7 95 95 Calm 30.09 1019 10 16.0934 0 0
10:15 am 10:15 Cloudy 29 -1.8 27 -2.7 94 94 NNW 3 6 30.09 1019 10 16.0934 0 0
10:35 am 10:35 Cloudy 29 -1.6 27 -2.6 93 93 NNW 3 6 30.09 1019 10 16.0934 0 0
10:55 am 10:55 Cloudy 30 -1.3 28 -2.5 92 92 NW 3 6 30.06 1018 10 16.0934 0 0
11:15 am 11:15 Cloudy 29 -1.4 27 -2.7 91 91 WNW 5 7 30.06 1018 10 16.0934 0 0
11:35 am 11:35 Cloudy 30 -1.2 27 -2.7 90 90 WNW 5 7 30.06 1018 10 16.0934 0 0
11:55 am 11:55 Cloudy 30 -1.1 27 -2.9 88 88 WNW 5 7 30 1016 10 16.0934 0 0
12:15 pm 12:15 Cloudy 30 -1.3 26 -3.3 86 86 WNW 7 11 30 1016 10 16.0934 0 0
12:35 pm 12:35 Cloudy 30 -1.2 26 -3.1 87 87 WNW 10 17 30 1016 10 16.0934 0 0
12:55 pm 12:55 Cloudy 30 -1 26 -3.6 83 83 WNW 10 17 29.97 1015 10 16.0934 0 0
1:15 pm 13:15 Cloudy 30 -1.1 25 -3.9 82 82 WNW 10 17 29.97 1015 10 16.0934 0 0
1:35 pm 13:35 Cloudy 30 -1.1 26 -3.6 83 83 WNW 10 17 29.97 1015 10 16.0934 0 0
1:55 pm 13:55 Cloudy 31 -0.7 26 -3.3 83 83 W 10 17 29.97 1015 10 16.0934 0 0
2:15 pm 14:15 Cloudy 31 -0.8 26 -3.4 83 83 W 9 15 29.97 1015 10 16.0934 0 0
2:35 pm 14:35 Cloudy 31 -0.4 26 -3.6 79 79 WNW 9 15 29.94 1014 10 16.0934 0 0
2:55 pm 14:55 Mostly Cloudy 32 -0.1 26 -3.6 78 78 W 9 15 29.94 1014 10 16.0934 0 0
3:15 pm 15:15 Partly Cloudy 32 0 26 -3.6 77 77 WNW 7 11 29.94 1014 10 16.0934 0 0
3:35 pm 15:35 Partly Cloudy 31 -0.3 25 -4 76 76 WNW 7 11 29.94 1014 10 16.0934 0 0
3:55 pm 15:55 Mostly Cloudy 32 -0.1 26 -3.4 79 79 WNW 8 13 29.91 1013 10 16.0934 0 0
4:15 pm 16:15 Cloudy 32 0 26 -3.2 79 79 WNW 8 13 29.91 1013 10 16.0934 0 0
4:35 pm 16:35 Cloudy 32 -0.2 27 -2.9 82 82 WNW 7 11 29.94 1014 10 16.0934 0 0
4:55 pm 16:55 Cloudy 31 -0.4 28 -2.5 86 86 WNW 8 13 29.94 1014 10 16.0934 0 0
5:15 pm 17:15 Mostly Cloudy 30 -1 27 -2.7 88 88 NW 6 9 29.94 1014 10 16.0934 0 0
5:35 pm 17:35 Cloudy 31 -0.7 28 -2.5 88 88 WNW 7 11 29.94 1014 10 16.0934 0 0
6:15 pm 18:15 Cloudy 31 -0.7 28 -2.3 89 89 W 9 15 29.94 1014 10 16.0934 0 0
6:35 pm 18:35 Cloudy 31 -0.8 27 -3 85 85 WNW 10 17 29.94 1014 10 16.0934 0 0
6:55 pm 18:55 Cloudy 30 -0.9 26 -3.1 85 85 WNW 10 17 29.94 1014 10 16.0934 0 0
7:15 pm 19:15 Cloudy 30 -1 26 -3.4 84 84 WNW 12 19 29.94 1014 10 16.0934 0 0
7:35 pm 19:35 Mostly Cloudy 30 -1.3 25 -3.7 84 84 WNW 9 15 29.94 1014 10 16.0934 0 0
7:55 pm 19:55 Partly Cloudy 28 -2 24 -4.2 85 85 NW 10 17 29.97 1015 10 16.0934 0 0
8:15 pm 20:15 Clear 27 -2.6 24 -4.6 86 86 WNW 9 15 29.97 1015 10 16.0934 0 0
8:35 pm 20:35 Clear 27 -3 23 -4.8 88 88 WNW 9 15 29.97 1015 10 16.0934 0 0
8:55 pm 20:55 Clear 26 -3.1 23 -5 87 87 W 8 13 29.97 1015 10 16.0934 0 0
9:15 pm 21:15 Clear 26 -3.4 23 -5 89 89 W 8 13 29.97 1015 10 16.0934 0 0
9:35 pm 21:35 Mostly Cloudy 26 -3.1 23 -4.8 88 88 W 9 15 29.97 1015 10 16.0934 0 0
9:55 pm 21:55 Cloudy 26 -3.1 24 -4.7 89 89 W 8 13 29.97 1015 10 16.0934 0 0
10:15 pm 22:15 Mostly Cloudy 26 -3.2 23 -5 88 88 W 10 17 29.94 1014 10 16.0934 0 0
10:35 pm 22:35 Partly Cloudy 26 -3.4 23 -5.2 88 88 W 10 17 29.94 1014 10 16.0934 0 0
10:55 pm 22:55 Partly Cloudy 25 -3.8 22 -5.5 88 88 W 9 15 29.94 1014 10 16.0934 0 0
11:15 pm 23:15 Clear 25 -4 22 -5.5 89 89 W 12 19 29.94 1014 10 16.0934 0 0
11:35 pm 23:35 Clear 25 -4 22 -5.5 89 89 W 12 19 29.94 1014 10 16.0934 0 0
11:55 pm 23:55 Clear 25 -3.7 22 -5.5 87 87 W 13 20 29.91 1013 10 16.0934 0 0

Powered by AerisWeather